User: anonymous   Login
Location: Great Northern Moose Lodge
(44.6765°N, 71.1811°W)
Time: 04:24:24
(UTC-04:00)
Language:

Terra - Orbit

View from above orbital plane
View from above orbital plane
View from above satellite
View from above satellite

Ground track
Ground track

The orbit data is extracted from the following two-line orbital elements,

1 25994U 99068A   14303.79297812  .00000093  00000-0  30703-4 0  7758
2 25994 098.2015 016.5718 0001285 073.9311 286.1999 14.57135151790816
Epoch (UTC): 30 October 2014 19:01:53
Eccentricity: 0.0001285
inclination: 98.2015°
perigee height: 701 km
apogee height: 703 km
right ascension of ascending node: 16.5718°
argument of perigee: 73.9311°
revolutions per day: 14.57135151
mean anomaly at epoch: 286.1999°
orbit number at epoch: 79081

The dashed part of the orbit path shows where the satellite is in the earth's shadow,  

DLR